Wind_Speed
58 61 64 67 69 70 71 73 75 76 77 77 77 77 76 76 76 76 76 76 76 76 76 76 76 76 75 75 74 74 73 73 72 71 70 69 68 68 68 68 68 68 68 69 68 67 67 66 65 65 63 62 61 58 57 55 53 53 51 50 49 48 47 45 42 41 40 37 36 37 37 36 36 35 35 39 43 42 42 44 44 42 40 39 38
55 58 60 63 65 67 69 71 74 76 77 78 78 78 78 79 79 79 79 78 78 78 78 78 78 78 78 78 77 77 77 76 75 74 73 72 71 70 70 70 70 70 71 71 70 69 69 68 68 67 66 65 64 63 62 60 57 57 56 54 53 51 51 50 47 45 44 42 39 38 39 38 37 36 35 38 44 44 42 44 46 45 42 41 41
51 53 56 58 60 62 65 67 70 72 74 77 78 79 80 81 80 80 80 80 79 80 80 79 80 79 79 80 80 80 80 79 78 78 77 76 75 74 73 73 72 72 72 73 72 71 71 71 70 69 68 67 67 66 65 64 61 60 59 57 55 54 53 52 51 49 48 46 43 40 40 39 38 38 35 36 43 47 44 44 46 47 45 44 44
47 49 50 52 54 57 59 62 65 66 69 72 74 77 79 80 81 81 80 80 80 80 81 81 81 82 82 82 82 82 82 82 81 81 80 80 79 78 77 76 76 75 75 75 74 74 74 74 73 72 71 71 71 69 68 67 65 63 62 61 58 56 55 54 52 52 51 51 48 44 42 41 40 40 38 38 44 48 47 47 47 47 48 47 45
44 45 47 48 50 52 54 56 58 60 62 64 67 69 72 74 76 78 79 80 81 81 82 82 83 83 84 85 84 84 84 83 83 83 83 83 83 82 81 81 80 80 79 79 78 78 77 77 77 75 74 74 74 73 71 69 68 67 65 63 61 59 58 57 54 53 53 54 53 49 46 44 43 42 41 42 46 49 49 50 50 49 50 50 48
41 42 44 46 48 50 51 52 53 55 57 58 59 61 63 66 68 71 73 76 78 80 82 83 83 84 86 87 87 86 86 85 85 85 85 85 85 85 85 84 84 84 84 83 83 82 81 80 79 78 77 77 77 76 74 72 71 70 68 66 65 63 62 61 58 56 56 56 57 54 50 48 46 46 45 45 48 49 49 51 51 50 50 51 52
39 39 41 43 46 47 48 48 49 51 52 54 54 55 57 60 62 64 65 67 70 74 79 82 83 84 85 86 88 89 88 88 88 88 88 88 88 87 87 87 87 87 87 86 86 85 84 83 82 81 80 80 79 79 78 76 74 73 72 70 69 68 67 66 63 61 60 61 60 58 55 52 50 50 49 49 51 51 51 51 50 49 50 51 53
37 38 38 40 42 43 44 45 46 48 49 50 51 52 54 56 58 59 60 62 64 66 69 74 78 81 82 83 85 88 89 90 91 91 91 91 91 91 90 90 90 90 89 89 89 88 87 86 85 84 83 83 82 82 81 79 78 77 76 75 73 73 72 71 69 65 64 64 63 61 59 55 54 54 53 52 54 54 53 52 50 50 50 51 51
37 37 37 38 39 39 40 42 43 44 45 47 48 49 51 53 55 56 58 60 63 64 63 65 68 71 75 77 80 83 86 89 91 92 92 93 93 93 92 92 92 92 92 92 91 91 90 89 89 88 87 86 86 85 84 83 82 81 81 80 79 78 77 77 75 71 68 67 65 64 62 58 58 59 56 55 56 55 54 54 53 52 51 50 51
37 37 37 36 36 37 38 39 40 41 43 44 45 46 48 50 53 53 54 57 62 64 65 64 63 63 65 68 72 76 80 84 87 90 91 92 93 93 93 93 93 93 93 93 93 93 92 92 92 91 91 91 90 89 88 87 87 87 86 85 84 83 82 80 79 76 73 71 69 68 65 62 63 63 60 58 58 57 56 56 56 55 53 52 52
37 37 36 35 35 36 37 38 39 40 42 43 43 43 45 47 49 51 53 56 60 63 66 66 65 64 64 65 66 68 72 76 80 83 85 86 87 89 90 91 92 92 93 93 93 93 93 93 94 93 93 94 93 93 93 92 91 90 90 89 87 86 84 83 81 79 77 74 73 71 69 67 67 66 63 61 60 59 58 57 58 59 57 55 55
36 36 35 34 34 36 37 38 39 39 40 42 42 42 42 43 45 48 50 52 55 58 60 63 65 65 65 65 64 64 65 68 71 72 73 74 76 78 80 82 84 85 86 87 87 89 90 91 93 94 94 95 95 95 94 94 93 93 92 91 90 88 86 84 83 81 79 77 75 74 73 71 71 69 66 63 62 61 60 60 62 62 61 59 57
37 35 35 34 34 35 36 37 38 38 38 40 40 40 40 40 41 42 42 43 47 51 54 58 61 61 62 61 60 60 61 62 63 63 64 65 66 67 68 70 72 73 74 75 76 77 79 81 84 87 89 91 93 93 93 93 93 93 92 92 91 90 88 86 85 83 82 80 78 77 76 75 74 72 69 66 65 63 62 64 65 64 64 64 61
37 36 35 34 33 34 35 36 37 37 37 38 39 39 39 38 39 40 40 40 44 49 53 56 58 58 58 58 58 58 60 60 61 61 61 62 63 64 65 66 67 68 69 70 70 70 71 71 72 74 77 81 85 87 89 90 90 90 91 91 91 91 89 87 86 85 84 82 80 79 79 78 77 75 72 70 67 63 62 65 66 66 66 66 64
37 37 36 34 33 33 34 35 36 36 36 37 38 38 38 37 37 38 41 44 47 51 54 56 58 59 59 59 58 59 60 61 62 62 63 63 65 66 68 68 69 69 69 68 68 68 68 67 68 69 69 71 75 78 82 85 87 88 88 89 90 90 89 88 87 86 86 84 83 81 81 81 79 77 76 74 72 68 66 64 63 65 69 69 67
38 38 37 36 34 34 34 35 35 35 36 36 37 38 38 38 36 36 40 44 47 50 54 56 59 61 62 63 63 63 63 63 63 64 65 66 67 69 70 71 71 70 69 68 67 66 66 66 67 68 69 69 69 72 74 77 81 84 86 87 88 89 89 89 89 88 87 86 84 83 83 82 81 80 79 77 76 74 72 67 62 63 69 73 71
39 40 39 38 36 35 35 35 34 34 35 36 37 37 38 38 37 37 39 40 41 44 48 53 57 61 64 66 66 66 66 65 65 66 67 68 69 71 72 72 72 71 70 69 68 68 67 67 67 69 70 70 70 70 71 72 74 78 81 84 86 87 88 89 89 88 87 86 85 85 84 84 83 82 82 81 79 77 76 73 70 67 68 71 72
39 41 41 39 37 36 36 35 33 33 34 35 36 37 37 37 37 37 37 38 39 40 43 47 53 58 63 66 67 66 65 64 64 65 66 68 70 72 73 74 74 74 73 72 72 71 71 71 71 71 72 72 71 72 72 73 73 74 77 80 83 85 87 88 88 88 87 87 86 85 85 86 85 84 83 83 82 81 79 78 78 76 73 72 73
40 42 42 40 38 37 36 35 33 33 33 34 34 34 34 34 35 36 35 36 38 39 41 45 48 51 56 60 62 62 63 63 63 63 64 66 69 71 73 74 75 75 75 75 75 75 75 75 75 75 75 74 74 73 74 75 75 76 77 78 80 83 86 87 87 88 88 87 87 86 86 86 86 86 85 85 84 84 82 82 83 81 78 76 76
40 41 41 40 39 38 36 35 33 33 33 33 33 33 32 32 33 34 35 36 37 37 40 42 43 44 47 50 53 56 57 58 59 60 62 65 68 70 72 74 74 75 76 76 76 76 76 75 75 75 75 75 74 74 74 75 76 78 79 79 80 82 85 86 87 88 88 88 88 87 86 87 87 86 86 86 86 85 85 85 86 84 82 80 78
40 39 38 38 38 38 36 34 33 33 33 33 33 32 31 30 31 33 34 35 36 37 38 39 39 39 41 42 45 48 49 50 52 54 56 60 63 66 67 69 70 70 71 71 70 69 69 69 69 70 71 71 71 71 71 71 72 74 77 80 81 82 84 86 87 88 89 89 88 88 87 87 87 87 87 87 87 87 87 87 86 85 84 83 80
38 37 36 36 36 36 36 33 32 33 34 34 33 32 30 30 31 32 33 34 34 35 36 36 36 36 37 38 41 45 46 47 48 49 51 53 55 58 60 61 63 63 63 63 62 62 62 63 63 65 66 67 67 68 68 68 69 70 72 75 78 81 82 84 86 88 88 88 89 88 88 88 87 87 88 88 88 87 87 87 86 84 84 83 82
36 35 34 34 34 35 35 33 32 33 34 34 33 31 30 30 31 31 32 33 33 33 33 34 35 35 37 40 43 45 46 46 46 47 49 51 54 55 56 58 59 60 60 60 59 59 60 60 60 61 62 63 64 65 66 66 67 68 68 70 73 76 78 81 84 86 87 88 88 88 88 88 87 87 87 87 88 87 87 86 85 83 82 82 82
35 34 33 33 33 34 34 33 32 33 34 34 33 31 30 30 30 31 32 33 33 32 32 33 34 36 38 41 43 43 44 45 45 47 49 52 54 55 56 57 58 59 60 60 59 59 59 59 60 60 61 62 62 63 63 63 64 66 67 68 70 71 73 75 78 81 83 85 87 88 88 88 88 88 87 87 87 87 87 86 85 84 83 82 82
35 34 34 33 32 33 33 32 32 33 34 34 33 31 30 30 30 31 31 32 32 32 32 33 35 37 38 40 42 42 41 41 44 46 48 51 54 55 56 56 57 58 58 59 59 59 58 59 59 61 62 62 63 63 62 62 62 63 64 66 68 69 71 73 74 76 77 79 82 84 86 87 88 89 89 89 88 88 88 88 87 86 84 83 83
36 35 35 34 32 32 31 32 32 34 34 33 32 31 31 30 31 30 30 31 32 33 33 34 36 37 38 39 41 41 40 40 43 45 46 49 51 52 52 53 54 55 56 57 57 57 57 57 58 59 61 63 63 63 63 62 62 63 63 64 65 67 68 70 71 72 74 75 76 77 79 81 84 87 89 90 90 90 89 90 89 88 87 85 83
37 35 35 35 33 32 31 32 33 34 34 33 32 31 30 30 30 30 29 30 32 34 35 35 36 37 38 39 40 40 40 40 43 44 46 48 48 49 49 50 51 52 54 55 56 56 56 56 57 58 59 61 62 63 63 63 63 64 65 65 65 65 66 66 67 68 70 71 72 73 74 75 77 80 83 86 89 90 90 91 91 91 90 88 85
38 36 36 36 35 33 32 33 33 33 33 32 31 30 29 29 29 29 29 31 33 34 35 35 36 37 38 39 39 40 40 41 42 43 45 46 46 46 47 48 49 51 53 54 55 56 57 57 57 58 59 60 61 62 62 62 63 64 65 66 66 66 66 66 65 66 66 67 68 69 70 71 72 74 76 78 82 86 89 91 92 92 92 91 88
39 37 35 36 36 34 33 32 33 33 32 31 31 30 30 29 29 29 30 31 33 34 34 35 36 37 38 39 38 39 41 41 41 42 43 44 44 44 45 46 48 49 51 52 53 54 56 56 57 57 58 59 60 61 61 62 62 63 65 65 66 66 67 66 66 66 66 65 65 66 67 68 69 71 72 73 75 80 85 89 91 93 93 93 91
40 38 35 35 36 35 33 31 32 32 32 31 30 30 30 29 28 29 30 32 33 33 34 34 36 37 39 39 38 38 39 39 39 40 40 40 40 40 41 42 43 44 45 46 48 49 51 52 53 54 55 56 57 58 60 60 61 62 63 64 65 65 66 66 66 66 67 66 66 65 65 65 66 67 68 70 71 74 78 83 88 91 93 94 93
41 39 35 34 36 36 34 32 31 32 32 31 30 30 30 29 28 29 30 31 32 32 33 34 35 36 37 36 35 34 34 33 32 32 32 33 33 33 34 35 36 37 38 39 40 42 43 44 45 47 48 50 51 52 54 56 58 59 61 62 64 65 65 65 65 65 66 66 66 66 65 65 64 64 65 67 70 72 74 77 80 85 89 93 94
42 40 37 35 35 35 34 32 31 32 32 31 30 30 29 28 28 28 29 30 31 31 32 33 33 33 33 31 30 28 26 25 25 24 25 26 27 27 29 30 30 31 32 33 34 36 36 37 38 40 41 42 43 45 46 49 51 53 55 58 61 63 65 65 65 65 66 65 65 65 65 65 64 63 63 65 68 70 72 73 74 76 81 87 91
42 41 38 36 35 35 34 32 31 31 31 31 30 30 29 29 28 28 28 29 29 30 31 32 31 30 29 27 25 23 21 20 20 20 21 22 23 25 26 27 28 29 29 30 31 32 32 33 35 36 36 37 37 37 39 41 44 46 49 52 57 60 63 64 64 65 64 64 64 63 63 64 64 64 63 64 65 67 70 71 71 72 74 78 84
42 42 40 37 35 35 34 32 31 31 31 31 30 30 30 29 28 27 27 27 28 29 30 30 29 28 26 24 21 19 18 18 18 19 20 21 22 24 25 26 26 26 27 28 29 29 29 30 31 33 33 33 33 33 34 35 37 40 43 46 50 55 58 60 62 62 62 62 62 61 61 62 63 63 63 63 63 64 65 68 70 71 71 72 76
41 41 39 37 35 35 34 32 31 31 31 31 31 30 29 29 28 27 26 26 26 27 29 29 27 25 23 21 19 17 17 16 17 17 19 20 21 22 23 23 23 23 24 25 26 26 27 27 28 29 29 29 29 29 30 31 32 34 37 40 44 47 51 54 56 58 58 58 58 59 59 59 61 61 61 61 61 61 62 65 68 69 69 70 71
39 38 37 36 35 35 34 33 32 31 31 31 31 30 29 28 27 27 27 26 26 27 27 27 25 23 20 19 17 16 15 15 15 16 18 19 21 21 20 20 20 20 21 22 23 23 24 24 24 25 26 26 26 26 26 27 28 29 32 35 38 41 44 47 50 52 53 53 53 55 56 57 58 59 59 58 59 60 60 62 64 66 67 68 69
38 37 37 37 37 37 36 35 33 32 31 32 31 30 29 28 27 27 27 26 26 26 26 26 24 21 18 16 15 14 13 13 14 15 16 18 20 20 19 19 19 19 19 19 20 20 20 21 21 22 22 23 24 24 24 24 25 26 27 30 33 36 38 41 44 46 48 48 48 49 52 55 56 57 57 56 57 58 58 59 60 62 65 67 68
40 40 40 40 40 39 38 37 35 33 32 32 31 31 30 28 27 27 27 27 26 25 25 24 23 20 17 16 15 13 11 11 12 14 15 16 18 18 18 18 18 18 18 17 17 16 16 17 18 19 20 21 21 21 22 22 22 23 24 25 28 30 33 35 38 41 43 44 44 45 48 51 53 54 55 55 55 55 56 57 58 59 62 64 66
44 43 43 42 42 41 40 39 37 35 33 33 32 32 32 30 27 27 28 27 26 25 24 24 22 20 18 17 16 14 12 10 11 12 14 15 16 17 18 18 18 18 17 17 16 16 16 17 18 18 19 19 19 19 19 20 20 21 22 22 24 25 27 30 33 35 37 39 40 40 43 47 50 52 52 52 53 53 54 55 56 57 59 61 64
46 46 44 43 44 44 43 42 40 37 35 33 33 33 33 31 29 28 28 28 27 25 23 23 22 21 19 18 17 16 14 12 11 11 12 13 14 16 17 17 17 17 17 17 17 17 17 18 18 17 17 17 17 17 18 18 18 18 19 20 21 22 23 25 27 30 32 34 35 36 38 41 46 49 50 50 51 51 52 53 54 55 57 59 60
47 48 47 45 45 46 46 44 42 39 36 34 34 34 33 32 30 29 28 28 28 26 24 23 22 21 20 20 19 18 17 16 14 13 11 11 12 14 15 16 17 17 17 17 18 18 18 17 17 16 17 18 18 17 17 16 16 17 17 18 18 19 20 21 22 25 27 29 31 32 34 37 41 45 48 49 50 50 51 52 53 53 55 56 58
50 51 52 50 48 48 48 46 44 41 38 36 35 34 33 33 32 30 28 28 29 27 25 23 22 21 21 21 21 21 20 19 18 16 14 12 11 12 13 15 16 17 17 17 17 17 17 18 17 17 18 19 19 19 18 16 15 14 14 15 16 17 17 18 19 20 22 24 26 28 29 32 35 40 44 47 49 50 51 51 52 52 53 54 55
53 54 55 54 51 50 49 48 45 43 40 38 36 35 34 34 33 31 30 29 29 28 26 24 22 21 21 21 22 23 23 22 21 20 18 15 12 11 11 13 14 15 16 17 17 16 17 18 18 19 19 18 18 18 18 17 16 14 13 12 12 13 14 14 15 16 17 19 20 22 24 26 30 34 39 43 46 48 50 51 51 51 51 51 53
56 56 56 56 54 53 51 48 46 45 43 40 37 36 35 35 34 33 31 30 29 29 28 25 23 22 21 21 21 22 23 24 23 23 22 19 16 13 11 11 11 12 13 14 16 16 16 16 17 18 18 17 17 17 17 17 17 16 15 14 12 11 11 11 12 12 13 14 15 17 18 20 23 27 32 37 41 44 46 48 49 50 50 50 51
58 57 57 57 56 55 52 49 48 46 44 42 40 38 37 36 35 34 33 31 30 30 29 27 24 23 22 21 20 20 22 23 23 23 22 22 20 18 15 13 11 11 11 11 12 13 14 14 15 16 16 17 18 18 17 17 17 17 17 17 16 14 12 11 10 9 10 10 11 12 13 15 17 20 25 29 33 37 40 43 45 47 48 49 50
61 59 58 58 57 56 53 50 49 48 46 44 42 40 38 36 36 35 34 32 31 30 29 28 26 24 23 22 20 19 19 21 22 22 22 22 21 20 19 17 15 13 12 11 10 10 11 12 13 13 15 16 17 17 18 18 18 17 17 17 17 16 16 15 13 11 9 8 7 8 9 10 12 15 18 21 25 29 33 37 40 42 45 46 47
63 60 58 58 58 56 53 51 50 49 47 46 45 42 39 37 36 36 35 34 32 31 30 29 27 25 24 23 22 20 19 18 19 20 21 22 22 22 22 20 19 17 15 14 12 11 10 10 10 11 12 13 14 15 16 17 17 17 17 17 17 17 16 16 16 15 13 10 8 6 5 6 7 9 12 15 18 22 25 29 33 36 39 41 43
62 59 58 58 59 58 56 53 50 49 49 48 46 44 41 38 37 37 36 34 32 32 31 30 29 27 25 24 23 22 20 19 18 18 18 19 20 21 22 22 21 20 18 17 15 14 13 12 11 10 10 11 11 12 13 14 14 15 16 16 16 16 16 15 15 15 15 13 12 10 8 6 4 5 7 9 12 15 18 22 25 29 32 35 38
62 60 59 60 60 60 58 55 51 49 50 50 49 46 43 40 38 37 36 35 33 33 33 32 30 29 27 25 24 23 22 21 19 18 17 17 17 18 19 19 20 20 20 19 19 18 16 15 14 12 12 11 11 11 11 12 12 13 13 13 14 14 15 15 15 14 14 14 13 12 12 10 8 6 4 4 6 9 12 15 18 21 24 27 30
62 61 60 61 62 60 59 57 52 49 50 52 51 47 44 42 39 38 37 36 35 35 34 33 32 31 29 27 25 24 23 22 21 20 19 18 17 17 17 17 17 17 17 17 18 18 18 17 16 15 15 14 13 13 12 12 12 11 11 12 12 12 13 13 13 13 13 13 13 13 12 11 10 9 7 5 3 3 5 8 11 14 17 20 23
62 62 62 63 63 61 58 55 52 49 51 54 53 49 46 44 41 39 38 37 36 36 36 35 33 33 31 30 28 26 25 24 23 22 21 20 19 19 18 18 17 17 16 15 15 15 15 15 15 15 14 15 15 15 15 14 14 13 12 12 12 12 12 12 12 12 12 12 12 12 12 11 11 10 9 8 6 5 3 2 4 7 10 13 16
Wind_Direction
240 241 242 243 245 245 246 246 246 247 248 248 249 249 248 248 247 247 246 246 246 247 247 247 248 249 249 249 250 250 250 251 251 251 251 251 250 250 249 249 249 250 251 252 253 254 255 255 256 257 258 259 259 259 259 259 261 263 264 266 269 270 272 273 272 272 273 274 274 271 267 263 261 258 254 254 255 254 252 251 250 249 250 253 255
241 241 242 243 244 245 246 246 246 247 247 248 248 249 249 249 249 248 248 247 247 247 247 247 248 248 249 249 250 250 251 251 251 252 252 252 251 251 251 251 251 251 252 252 253 254 254 255 256 256 257 258 259 259 259 259 260 262 265 266 268 269 271 273 272 271 271 273 272 269 267 264 260 257 253 253 256 255 253 252 250 248 246 249 252
242 243 243 243 244 245 246 247 247 247 247 247 248 248 249 250 250 250 250 250 249 249 248 248 248 249 249 249 250 250 251 251 252 252 252 252 252 252 251 251 251 252 252 253 253 254 254 255 255 256 256 257 257 258 259 259 260 261 264 265 266 268 269 270 270 269 270 271 270 267 264 263 260 257 252 250 252 254 253 252 251 247 244 245 249
244 244 245 245 245 246 246 247 247 248 247 247 248 248 249 250 250 251 251 251 251 251 251 250 249 249 249 249 250 250 250 251 251 252 252 252 252 252 252 252 252 252 252 252 253 253 254 255 255 255 256 256 256 256 257 258 259 260 261 263 265 266 267 267 267 269 269 269 269 266 261 260 260 258 254 250 250 251 252 252 251 248 244 242 244
247 246 247 247 247 248 248 248 248 249 249 249 249 249 250 250 251 251 251 252 252 252 252 251 251 250 250 250 250 250 250 250 251 251 252 252 252 253 253 253 253 253 253 253 254 254 254 255 256 256 256 256 256 256 256 256 257 258 259 261 263 264 264 265 265 267 267 266 267 266 261 256 257 258 256 252 251 251 251 251 251 250 247 243 243
251 249 248 248 249 249 249 249 250 251 252 252 252 251 251 252 252 252 252 252 252 252 252 252 251 251 250 250 250 250 250 251 251 251 252 252 252 253 253 253 254 254 254 255 255 255 255 255 255 256 256 256 257 257 256 255 256 256 257 259 261 262 263 263 263 263 263 263 264 265 261 256 254 255 256 256 254 253 252 251 250 249 248 246 244
256 253 250 249 249 249 251 252 252 252 252 253 253 252 252 252 252 252 252 252 252 252 251 251 251 251 251 250 250 250 250 250 251 251 251 252 252 253 253 253 253 254 254 255 255 255 255 255 255 255 255 255 256 256 256 255 255 256 256 257 258 260 262 262 262 261 261 262 263 263 261 257 253 253 254 256 257 255 253 253 251 249 248 247 246
260 257 255 253 251 251 252 252 252 253 253 253 253 253 253 253 252 252 251 251 252 253 253 252 251 251 251 250 250 250 250 250 250 250 251 251 251 252 252 253 253 254 254 254 255 255 255 255 255 254 254 254 255 255 255 255 254 255 256 256 257 259 260 261 261 259 258 259 261 261 260 258 255 253 251 253 255 256 255 255 253 251 249 248 246
263 261 260 258 257 256 255 254 254 254 254 253 253 252 252 253 253 253 252 251 251 251 252 252 252 252 251 250 250 250 250 250 250 250 250 250 250 251 251 252 253 254 254 255 255 255 256 256 256 255 255 255 254 254 254 254 254 254 255 256 257 258 259 260 260 258 256 256 257 258 258 256 254 253 252 252 253 255 256 255 254 253 251 249 248
265 264 263 262 262 261 261 261 260 260 258 257 255 254 254 253 253 252 251 250 250 248 248 250 251 252 252 251 250 250 250 250 250 250 250 250 250 250 251 252 252 253 254 254 255 256 256 257 257 257 257 257 256 256 255 254 254 254 254 255 256 256 257 258 258 258 256 255 255 255 255 254 253 253 253 253 254 255 255 255 255 254 253 251 250
266 265 265 265 264 264 264 263 263 264 264 263 261 259 258 257 255 253 251 251 250 248 246 248 249 251 251 252 253 253 251 250 250 250 251 251 252 252 252 252 253 253 254 254 255 256 256 257 257 257 257 257 257 257 256 256 255 255 255 255 255 256 256 256 256 256 255 255 254 254 254 253 252 252 252 252 253 254 254 254 255 254 253 252 251
268 266 266 266 265 264 264 263 263 264 265 266 265 263 262 260 259 258 255 253 251 248 247 247 249 250 252 254 256 255 254 253 252 252 252 253 253 253 253 253 254 254 255 255 256 256 256 257 257 257 257 257 257 257 257 256 256 256 256 256 256 255 255 254 254 254 253 253 253 253 253 252 252 251 250 250 251 253 254 254 254 253 252 252 251
268 267 266 265 264 264 264 264 264 265 267 268 269 268 266 264 262 259 255 253 252 251 250 250 251 253 256 258 258 258 257 257 257 256 256 255 255 255 255 255 255 255 255 255 256 256 256 257 257 257 257 257 256 256 256 256 256 256 256 256 255 255 254 254 253 253 252 252 252 252 252 251 251 250 249 248 249 251 252 252 253 253 253 252 251
270 268 265 264 264 264 264 266 266 267 269 271 272 271 269 267 265 261 256 253 254 255 255 256 257 258 260 261 261 260 260 260 260 260 259 257 257 257 257 258 258 258 257 257 257 257 257 257 257 257 256 256 256 255 255 255 255 255 255 255 254 254 254 253 252 252 252 251 250 250 250 250 249 249 248 246 246 247 249 250 251 252 253 253 252
272 269 267 265 264 264 264 265 266 268 270 272 274 274 272 269 266 263 259 256 256 257 258 259 260 260 260 261 261 261 261 261 262 261 260 259 258 258 259 259 260 260 260 260 259 259 259 258 258 257 256 256 256 256 255 255 254 254 253 253 253 253 252 252 251 250 250 250 249 249 248 248 248 247 246 245 244 243 244 248 250 250 250 251 250
274 270 269 266 265 263 263 263 265 268 271 274 275 275 273 271 266 262 260 259 258 258 259 260 260 260 260 261 261 261 262 263 263 263 262 261 260 260 261 261 262 262 263 263 262 262 261 260 258 257 256 256 256 256 256 255 254 253 253 252 252 251 251 250 250 249 249 249 249 248 247 247 247 246 245 244 243 242 241 243 246 247 248 248 248
276 271 269 267 266 264 262 262 263 267 270 273 275 275 273 271 268 264 263 263 261 258 258 258 258 259 260 261 261 262 263 264 264 264 264 263 262 262 263 264 265 266 266 266 266 265 264 264 262 260 258 257 256 255 255 255 255 254 253 252 251 251 250 250 249 249 248 248 247 247 247 246 246 245 245 244 243 242 240 240 241 243 245 247 247
278 273 269 267 266 264 263 262 262 264 267 271 274 275 273 272 270 268 266 265 262 259 258 258 257 257 259 260 262 263 264 264 265 264 264 264 264 264 264 265 266 267 268 268 267 267 267 267 266 265 263 261 258 256 255 254 254 255 254 252 251 250 250 249 248 248 247 246 246 246 246 246 246 245 245 244 243 242 241 240 240 240 243 245 246
280 275 271 269 268 266 265 265 264 265 267 271 273 274 272 272 271 270 268 265 263 261 260 260 260 259 259 261 263 264 265 266 266 266 265 265 264 264 265 266 266 267 268 268 268 268 268 268 268 267 266 264 261 259 257 255 254 254 253 252 251 249 249 248 248 247 246 245 245 245 245 246 246 246 245 244 243 242 241 240 240 240 241 243 245
281 276 272 271 270 269 267 267 268 268 270 273 275 273 271 271 271 271 270 268 265 263 263 265 266 266 266 266 266 266 266 266 267 267 266 265 265 265 265 265 266 266 266 266 266 267 267 267 266 266 265 264 262 260 258 257 256 254 253 251 250 249 248 247 247 246 246 245 244 244 244 245 245 246 245 244 243 242 241 241 241 241 241 242 243
281 277 272 270 270 269 268 268 270 272 273 275 275 274 272 270 270 270 270 269 269 268 268 269 270 270 270 269 266 266 266 267 268 267 266 266 265 265 265 265 266 266 266 265 265 265 265 265 264 264 263 262 262 260 259 258 258 256 253 251 250 249 248 247 246 246 245 245 244 243 243 243 244 244 245 244 244 243 241 241 241 242 242 241 241
282 278 272 268 267 267 266 266 269 272 273 275 276 276 275 273 273 273 272 270 270 270 271 271 269 267 266 264 265 268 268 268 267 266 265 265 264 264 264 264 264 264 264 264 264 264 264 264 263 263 262 262 261 261 260 260 259 258 256 254 252 250 249 248 247 246 246 245 244 243 242 242 242 243 243 244 244 243 242 241 241 241 242 241 240
281 277 271 266 264 264 265 266 268 270 272 275 278 278 276 275 276 277 276 274 274 274 274 273 271 267 266 267 270 271 271 270 270 268 266 265 264 263 263 263 263 263 264 264 264 264 264 263 263 263 263 262 262 261 261 260 260 259 258 257 255 253 252 250 249 248 247 246 245 244 243 242 241 241 242 242 243 242 242 241 240 240 240 240 239
279 274 268 263 262 263 265 266 267 270 272 275 278 278 276 276 277 277 276 277 277 277 276 275 273 272 272 273 273 272 271 271 271 270 268 267 266 266 265 265 265 265 266 266 266 266 265 265 265 265 264 264 263 262 261 260 259 258 258 257 257 256 254 253 251 250 249 248 247 246 245 244 243 242 241 241 241 241 241 240 239 239 239 240 239
278 273 266 262 260 261 264 266 268 270 272 275 278 278 276 276 277 277 278 279 280 280 279 278 277 277 277 277 275 274 273 272 271 268 267 266 266 266 266 266 266 267 267 267 267 266 265 265 264 264 264 263 263 262 261 260 259 258 257 257 256 256 255 254 253 252 251 250 249 248 247 246 244 243 242 241 240 240 240 240 239 238 238 239 239
278 274 267 262 261 261 264 267 269 270 272 275 277 277 276 276 277 279 281 283 284 284 284 283 282 282 281 280 279 278 277 275 272 270 268 266 266 266 267 267 268 268 268 268 267 266 265 264 262 262 261 261 261 261 260 260 259 259 258 257 256 255 254 254 253 253 252 251 250 249 248 247 246 245 244 242 241 240 239 239 238 238 237 238 238
279 276 269 262 261 261 263 266 268 269 271 274 276 275 274 275 278 281 284 286 287 288 288 287 285 284 283 282 281 281 280 277 275 273 271 271 271 271 271 271 270 270 269 269 268 267 267 265 263 262 261 260 260 259 259 258 258 258 257 257 256 256 255 254 253 253 252 251 250 249 248 247 247 246 245 244 243 241 239 238 237 237 237 237 237
278 278 271 264 261 261 262 264 266 267 269 273 275 274 274 275 279 283 286 288 289 289 288 288 287 285 284 283 283 284 282 280 278 277 276 275 275 275 274 273 272 271 271 270 270 270 269 268 267 265 264 263 262 261 259 258 256 256 256 255 255 255 255 254 254 253 252 251 250 249 248 247 246 246 245 245 244 242 240 238 237 236 236 236 236
275 276 271 265 262 260 260 261 264 266 269 273 275 275 275 277 281 285 288 289 289 288 288 289 289 288 288 288 288 287 285 283 282 280 279 278 278 277 276 275 274 273 273 273 272 272 271 270 269 268 267 265 264 263 261 259 257 256 255 255 254 254 254 254 253 253 253 252 251 250 248 247 246 245 245 245 244 243 241 239 237 236 236 236 236
273 273 270 266 263 261 259 260 263 266 269 272 274 275 276 278 282 286 288 288 288 289 290 291 292 292 293 293 292 290 288 286 284 282 281 281 280 279 278 276 276 275 274 274 273 272 271 271 270 269 267 266 265 263 262 260 258 257 256 255 254 254 253 252 252 252 252 252 252 251 250 249 247 245 245 244 244 244 242 240 238 236 236 236 236
271 271 269 267 264 261 259 259 262 265 268 271 274 274 275 277 281 284 286 286 287 289 291 292 294 297 298 298 296 293 289 286 284 283 282 282 281 281 280 279 278 278 277 276 275 274 273 272 271 270 268 267 266 264 262 261 259 257 255 254 254 253 253 251 250 249 249 249 250 250 250 249 248 247 245 244 244 243 243 241 239 237 236 235 235
270 271 271 269 265 261 258 258 261 263 267 270 273 273 274 276 279 282 284 285 287 290 292 296 300 304 305 304 301 296 292 289 287 287 288 289 290 291 290 289 288 287 285 284 282 281 279 278 276 274 272 270 268 266 264 262 259 256 254 252 251 250 250 250 249 248 248 247 247 247 247 248 248 247 245 244 243 243 243 242 241 239 237 236 235
268 271 272 270 266 260 256 256 258 261 265 269 272 272 273 275 277 280 283 286 289 293 297 302 306 310 310 308 305 302 301 301 302 304 305 305 305 304 302 300 299 297 295 293 292 290 288 287 285 282 280 277 274 270 267 263 260 257 253 250 248 248 247 248 248 247 247 247 246 245 245 245 245 245 245 244 243 242 242 242 242 240 238 236 235
267 271 272 271 266 258 254 254 256 259 263 267 270 270 271 273 277 280 283 287 292 296 300 305 310 311 312 311 310 311 313 315 316 316 316 316 314 312 309 306 305 303 302 300 299 297 295 293 290 288 286 284 281 277 273 267 262 258 254 251 249 248 247 247 247 247 247 246 246 245 244 243 243 244 244 244 243 242 242 242 242 240 239 237 236
268 270 270 269 265 257 252 252 254 257 261 265 267 268 269 271 276 280 283 286 291 295 300 306 309 311 313 315 316 318 319 320 322 324 324 325 323 319 315 312 311 310 309 308 306 304 302 299 296 293 291 288 285 282 278 273 267 262 257 254 251 249 249 248 248 248 248 246 245 245 244 243 243 243 242 242 242 242 241 241 241 240 238 237 236
266 267 268 267 263 256 252 251 252 254 258 263 265 266 267 269 274 278 281 284 288 292 299 304 307 309 312 313 314 317 321 325 329 332 332 333 331 328 325 325 324 323 321 319 316 313 310 307 304 302 299 296 293 289 285 280 274 267 262 258 255 252 251 250 249 249 249 247 245 244 243 243 242 242 242 241 241 241 241 241 241 240 238 237 236
260 262 264 265 263 258 252 251 251 252 256 261 264 265 266 267 271 275 278 281 285 290 297 302 304 304 305 306 307 312 321 330 336 337 337 338 337 336 336 335 333 332 331 327 324 322 319 317 315 313 311 307 303 299 294 288 282 275 268 263 260 257 254 252 251 251 250 249 245 242 242 242 242 242 242 241 240 241 241 241 241 240 239 237 235
253 254 257 260 262 259 253 249 249 251 254 258 262 264 264 265 267 271 274 278 281 287 293 298 299 297 294 293 295 302 314 328 337 339 341 341 339 340 341 340 339 339 338 335 333 332 331 330 329 327 323 319 314 309 304 298 292 285 278 271 265 262 259 257 255 254 254 252 248 243 240 240 241 242 241 241 240 240 240 241 241 240 240 238 235
246 247 250 254 258 258 254 249 247 248 250 254 259 262 262 262 264 266 270 273 277 281 288 293 294 290 284 282 285 291 300 312 324 333 339 341 340 342 343 344 345 346 346 344 344 346 348 348 346 342 338 332 326 321 314 307 301 295 289 281 274 268 264 261 259 258 257 256 254 248 243 241 241 242 241 240 241 241 241 241 240 240 240 239 237
243 242 245 250 254 256 255 250 245 244 247 251 255 259 260 260 260 262 265 269 272 275 281 287 290 287 279 274 276 281 287 292 301 313 327 335 340 342 343 344 346 349 352 353 355 357 359 359 356 352 350 346 342 336 329 321 312 305 298 291 284 277 271 266 262 260 259 258 256 252 247 243 242 243 242 241 240 240 241 241 240 240 240 240 238
240 240 241 244 248 253 254 250 244 242 244 247 251 255 257 257 257 258 261 265 269 271 274 281 286 286 279 272 270 273 277 281 285 292 302 317 330 338 341 342 343 347 352 356 359 1 3 3 2 1 2 2 358 353 347 339 329 320 311 303 296 289 282 275 269 264 261 259 257 254 249 244 241 241 242 241 240 239 240 240 240 240 240 240 239
239 239 241 242 244 248 252 250 244 240 241 243 247 251 254 254 255 256 257 260 265 268 270 274 281 284 281 274 269 268 270 273 278 282 286 294 310 324 333 337 340 342 346 350 354 358 1 2 4 9 12 11 7 3 0 356 349 339 328 318 308 300 293 286 279 272 267 263 260 256 252 247 242 239 240 240 239 238 238 239 240 240 239 239 239
240 240 242 243 243 245 248 249 244 239 238 240 243 247 251 252 252 253 254 256 260 264 266 269 274 280 282 278 271 268 267 268 271 275 279 281 288 300 314 325 333 336 339 341 344 350 357 1 4 8 12 12 11 11 10 8 6 0 351 339 327 314 305 297 290 282 275 269 265 260 255 250 245 241 239 239 239 239 238 238 239 239 239 239 238
241 240 242 244 244 244 246 248 246 240 237 238 241 244 247 249 250 251 252 253 255 259 262 265 268 273 278 279 274 269 267 266 268 271 274 276 278 281 288 302 316 324 331 335 338 341 348 355 359 2 4 6 9 13 15 17 18 15 11 6 358 344 331 319 307 297 287 278 271 266 260 253 248 243 240 239 240 240 240 239 239 239 239 238 238
241 239 239 242 244 245 246 247 246 241 237 236 239 241 244 246 248 249 250 251 252 255 258 260 263 266 271 276 276 272 268 267 267 268 271 273 275 276 277 282 291 302 313 323 330 335 339 343 348 352 355 359 4 8 12 17 20 23 24 22 18 13 5 355 342 326 310 295 282 273 265 257 250 244 240 239 239 240 241 241 241 240 239 239 238
240 238 237 239 243 245 245 246 245 241 236 235 237 239 241 244 245 247 248 249 250 252 254 257 258 260 264 270 274 275 272 269 268 268 269 271 274 276 277 278 280 283 289 298 311 322 330 335 339 343 347 352 356 360 4 8 12 18 24 27 28 27 24 19 12 3 349 331 310 290 276 264 255 247 242 239 237 237 239 240 241 241 241 240 240
238 237 236 238 242 244 244 245 244 240 236 234 236 238 239 242 243 244 246 247 248 250 252 253 255 256 258 262 267 271 273 272 270 270 270 270 272 274 276 277 279 280 280 283 289 298 307 317 327 336 341 345 348 351 355 359 2 6 12 17 22 26 29 29 27 23 16 9 359 341 313 286 267 255 247 241 238 237 236 237 238 240 240 241 241
238 237 236 238 240 242 242 243 243 240 235 233 234 236 237 239 242 242 243 245 247 248 250 251 251 252 253 255 259 264 268 270 271 271 272 273 275 275 276 276 277 278 280 282 284 287 291 296 304 313 322 331 338 342 346 351 354 357 1 4 7 11 16 22 26 28 27 25 23 19 11 356 324 283 259 248 242 238 236 236 237 237 238 239 240
237 236 236 237 240 241 242 243 243 240 235 232 232 234 235 237 239 241 241 241 244 246 247 248 249 249 250 250 252 256 261 265 267 269 271 273 276 279 280 280 280 279 280 282 284 286 287 289 291 295 301 307 315 323 329 336 342 346 348 351 354 357 1 5 10 16 20 24 27 29 30 27 20 9 340 292 260 247 240 237 236 235 236 237 239
235 235 235 236 239 241 242 242 243 240 234 230 230 232 234 235 238 239 239 239 240 242 244 245 246 247 248 248 248 250 254 257 261 264 266 269 272 274 277 280 282 283 284 285 287 288 289 290 290 292 293 294 298 302 307 313 320 327 332 336 339 342 345 349 353 358 4 9 13 18 23 26 27 27 26 20 357 297 256 243 238 236 235 235 237
233 233 233 234 236 239 240 241 241 238 233 229 229 230 232 234 236 238 237 237 237 240 242 243 244 245 246 247 247 247 249 251 254 257 260 263 266 268 271 274 276 279 282 285 287 290 292 293 295 296 296 294 294 295 296 298 301 303 307 313 318 323 327 331 335 340 347 351 354 356 360 4 8 10 14 19 20 13 355 301 258 245 240 238 238
Height
10624 10625 10625 10625 10625 10627 10628 10630 10631 10632 10634 10637 10639 10642 10645 10647 10648 10650 10652 10654 10656 10658 10660 10662 10664 10665 10667 10669 10671 10673 10675 10677 10679 10682 10684 10687 10689 10690 10691 10691 10692 10693 10694 10695 10696 10698 10700 10702 10703 10705 10707 10708 10709 10711 10711 10712 10714 10713 10715 10717 10718 10719 10721 10722 10723 10724 10726 10727 10728 10728 10729 10731 10733 10735 10738 10735 10730 10731 10732 10731 10730 10731 10733 10735 10735
10617 10617 10617 10617 10618 10619 10620 10621 10622 10623 10625 10628 10630 10632 10634 10636 10637 10639 10641 10643 10646 10648 10650 10652 10654 10656 10658 10660 10662 10664 10666 10667 10670 10672 10674 10677 10679 10681 10682 10683 10684 10685 10686 10687 10689 10690 10691 10693 10695 10697 10699 10700 10701 10704 10704 10706 10708 10707 10708 10710 10711 10713 10714 10715 10716 10717 10718 10721 10722 10723 10723 10725 10727 10729 10732 10732 10725 10723 10726 10726 10725 10726 10728 10729 10730
10610 10610 10610 10611 10611 10612 10612 10613 10614 10615 10616 10618 10620 10622 10623 10624 10626 10629 10632 10634 10637 10639 10641 10644 10646 10648 10650 10651 10653 10654 10656 10658 10660 10662 10664 10666 10668 10671 10672 10673 10674 10676 10676 10678 10680 10682 10682 10684 10686 10689 10691 10693 10694 10696 10697 10698 10701 10701 10701 10703 10704 10706 10707 10707 10708 10709 10711 10713 10715 10717 10718 10719 10721 10722 10726 10729 10722 10716 10719 10720 10720 10722 10723 10724 10725
10602 10603 10603 10604 10604 10605 10604 10605 10605 10607 10608 10609 10610 10612 10614 10615 10617 10620 10622 10624 10627 10629 10631 10634 10636 10638 10639 10641 10643 10644 10647 10649 10650 10652 10654 10656 10658 10660 10662 10663 10664 10666 10667 10668 10671 10673 10674 10675 10677 10680 10682 10684 10684 10687 10689 10691 10693 10693 10694 10695 10697 10699 10700 10700 10701 10702 10703 10705 10707 10710 10712 10713 10714 10715 10718 10722 10717 10711 10713 10714 10714 10716 10718 10719 10721
10594 10595 10596 10596 10597 10597 10597 10597 10598 10599 10599 10601 10602 10604 10605 10607 10608 10610 10612 10613 10616 10618 10620 10623 10625 10626 10628 10629 10631 10633 10636 10638 10640 10642 10644 10645 10647 10649 10651 10652 10654 10655 10657 10659 10660 10663 10664 10666 10668 10670 10673 10674 10675 10677 10681 10683 10684 10685 10686 10688 10689 10691 10692 10692 10694 10695 10695 10696 10698 10702 10705 10707 10708 10708 10710 10713 10710 10707 10708 10708 10709 10711 10713 10715 10716
10586 10587 10588 10589 10589 10589 10589 10590 10592 10592 10593 10594 10596 10597 10598 10598 10599 10600 10601 10603 10605 10607 10608 10610 10612 10614 10616 10618 10620 10622 10625 10627 10630 10631 10633 10634 10636 10638 10640 10641 10643 10644 10646 10647 10650 10652 10654 10656 10658 10661 10664 10665 10666 10668 10671 10674 10676 10676 10678 10680 10682 10683 10684 10685 10686 10687 10687 10687 10690 10693 10697 10700 10702 10702 10703 10704 10702 10702 10702 10701 10703 10706 10707 10709 10711
10580 10580 10581 10581 10581 10582 10583 10584 10585 10586 10586 10587 10588 10589 10589 10589 10589 10591 10592 10594 10595 10596 10597 10598 10600 10602 10604 10607 10609 10611 10614 10616 10618 10620 10621 10623 10625 10626 10628 10629 10631 10633 10634 10636 10638 10641 10643 10646 10648 10650 10653 10655 10656 10658 10660 10664 10667 10667 10668 10671 10673 10675 10676 10677 10678 10678 10679 10679 10681 10684 10687 10692 10694 10695 10696 10696 10695 10695 10695 10695 10698 10701 10702 10703 10705
10573 10573 10573 10574 10575 10576 10577 10578 10578 10579 10580 10580 10581 10582 10581 10580 10581 10582 10583 10585 10586 10586 10587 10588 10589 10591 10593 10595 10597 10600 10602 10605 10606 10608 10610 10611 10613 10615 10616 10618 10619 10621 10623 10625 10627 10629 10631 10634 10637 10639 10642 10644 10646 10647 10649 10653 10656 10658 10658 10661 10664 10666 10667 10668 10669 10670 10671 10671 10672 10675 10678 10683 10686 10686 10688 10689 10687 10688 10689 10690 10693 10695 10696 10697 10699
10566 10566 10567 10567 10568 10570 10570 10570 10571 10572 10572 10573 10573 10574 10574 10573 10573 10574 10574 10575 10577 10578 10578 10579 10581 10582 10582 10584 10586 10588 10590 10592 10593 10595 10597 10599 10601 10603 10605 10607 10608 10610 10612 10613 10615 10617 10620 10623 10625 10628 10631 10633 10634 10636 10639 10642 10645 10647 10648 10650 10653 10656 10657 10659 10660 10661 10662 10663 10664 10665 10669 10674 10676 10676 10679 10681 10681 10682 10685 10685 10686 10687 10689 10691 10693
10560 10560 10561 10562 10562 10563 10563 10563 10564 10565 10565 10564 10565 10566 10566 10566 10566 10566 10566 10566 10568 10569 10569 10570 10572 10572 10573 10573 10575 10576 10577 10579 10580 10581 10584 10586 10589 10591 10594 10595 10597 10599 10601 10602 10604 10606 10609 10611 10614 10616 10619 10620 10622 10624 10627 10630 10632 10634 10636 10638 10642 10645 10647 10649 10650 10651 10652 10654 10655 10656 10660 10664 10665 10667 10671 10673 10674 10677 10679 10679 10680 10681 10683 10684 10685
10555 10555 10555 10556 10557 10557 10557 10557 10557 10557 10557 10557 10557 10558 10558 10558 10557 10557 10558 10558 10558 10558 10560 10561 10563 10563 10564 10564 10565 10566 10567 10567 10568 10570 10573 10575 10578 10580 10582 10584 10586 10588 10589 10591 10593 10595 10597 10600 10602 10604 10606 10608 10610 10612 10614 10617 10619 10621 10623 10626 10629 10632 10635 10637 10639 10640 10642 10644 10646 10647 10651 10653 10653 10657 10663 10666 10668 10670 10672 10674 10675 10674 10674 10675 10677
10549 10549 10550 10551 10551 10551 10550 10550 10550 10551 10550 10549 10549 10550 10550 10550 10549 10549 10550 10550 10549 10550 10551 10553 10554 10554 10555 10556 10557 10557 10557 10557 10558 10561 10564 10566 10568 10569 10571 10573 10575 10576 10578 10580 10582 10584 10585 10587 10589 10591 10593 10594 10597 10599 10600 10603 10606 10608 10610 10612 10615 10619 10622 10625 10627 10629 10631 10635 10637 10638 10641 10642 10643 10647 10654 10658 10660 10663 10666 10667 10665 10664 10665 10666 10668
10543 10543 10544 10545 10545 10545 10544 10544 10543 10544 10543 10542 10542 10542 10542 10542 10542 10543 10543 10542 10542 10543 10544 10545 10546 10547 10548 10549 10549 10549 10548 10549 10550 10552 10555 10556 10558 10559 10561 10563 10564 10566 10567 10569 10570 10572 10573 10575 10576 10578 10579 10581 10583 10585 10587 10589 10592 10594 10596 10598 10601 10604 10608 10612 10615 10617 10620 10624 10628 10629 10630 10631 10633 10638 10644 10649 10652 10655 10657 10656 10654 10654 10656 10657 10660
10537 10537 10538 10538 10539 10539 10538 10537 10537 10537 10537 10536 10535 10534 10534 10535 10536 10537 10537 10536 10536 10537 10537 10538 10539 10540 10540 10541 10541 10541 10541 10542 10543 10544 10546 10547 10549 10550 10551 10552 10554 10555 10556 10558 10559 10561 10562 10564 10565 10566 10567 10568 10569 10571 10573 10575 10578 10580 10583 10585 10587 10590 10594 10598 10602 10604 10607 10612 10617 10619 10618 10620 10624 10628 10633 10639 10643 10644 10646 10646 10646 10646 10647 10648 10651
10531 10531 10531 10532 10532 10532 10532 10531 10531 10530 10530 10530 10529 10528 10528 10529 10530 10531 10531 10531 10531 10531 10531 10532 10533 10532 10532 10533 10533 10533 10533 10534 10535 10536 10537 10539 10540 10541 10541 10542 10543 10544 10545 10547 10549 10550 10551 10553 10554 10555 10556 10557 10558 10559 10560 10562 10564 10566 10569 10572 10574 10577 10581 10584 10588 10591 10595 10599 10604 10607 10607 10608 10614 10618 10621 10626 10630 10633 10636 10638 10638 10638 10638 10638 10640
10525 10525 10525 10526 10526 10526 10526 10525 10525 10525 10524 10524 10523 10522 10521 10522 10525 10526 10525 10525 10525 10525 10525 10526 10526 10525 10524 10524 10524 10524 10525 10526 10527 10528 10530 10531 10531 10531 10532 10532 10533 10534 10535 10537 10539 10540 10541 10542 10543 10544 10545 10546 10547 10548 10549 10550 10551 10553 10555 10558 10561 10564 10568 10570 10573 10578 10583 10587 10591 10595 10596 10597 10602 10606 10609 10614 10618 10621 10625 10628 10628 10628 10627 10627 10632
10520 10520 10520 10520 10520 10520 10519 10519 10520 10520 10519 10518 10517 10516 10516 10516 10517 10518 10518 10519 10520 10520 10519 10519 10519 10518 10516 10515 10514 10515 10517 10518 10519 10520 10522 10522 10522 10522 10522 10522 10523 10524 10525 10527 10528 10529 10530 10531 10532 10532 10533 10534 10536 10537 10538 10539 10540 10540 10543 10545 10548 10551 10554 10556 10560 10565 10570 10574 10578 10581 10583 10585 10590 10594 10597 10601 10606 10609 10614 10618 10618 10617 10618 10620 10625
10515 10514 10513 10514 10515 10514 10513 10513 10514 10514 10514 10513 10512 10511 10510 10510 10510 10511 10512 10513 10513 10513 10512 10512 10512 10511 10509 10506 10506 10507 10509 10510 10511 10512 10513 10514 10514 10513 10513 10513 10513 10514 10515 10516 10517 10518 10519 10519 10520 10520 10520 10521 10523 10525 10526 10528 10528 10529 10531 10533 10536 10538 10540 10543 10548 10552 10556 10560 10564 10568 10571 10573 10577 10581 10585 10589 10593 10597 10603 10606 10606 10607 10611 10613 10616
10509 10508 10507 10508 10509 10508 10508 10507 10508 10508 10508 10508 10507 10506 10505 10505 10505 10505 10506 10506 10506 10506 10505 10504 10504 10504 10502 10501 10500 10500 10501 10502 10503 10504 10505 10505 10504 10504 10504 10504 10504 10504 10505 10505 10506 10507 10508 10508 10508 10508 10507 10508 10510 10512 10513 10515 10516 10517 10519 10522 10524 10525 10527 10530 10535 10539 10542 10547 10551 10556 10559 10561 10564 10569 10573 10577 10580 10585 10591 10594 10593 10596 10602 10604 10606
10503 10502 10502 10502 10502 10502 10502 10502 10501 10502 10502 10502 10502 10501 10501 10500 10500 10500 10500 10500 10500 10500 10499 10497 10497 10497 10496 10496 10495 10494 10494 10494 10495 10495 10496 10496 10495 10494 10494 10494 10493 10493 10493 10494 10495 10496 10497 10497 10497 10496 10495 10495 10497 10498 10500 10502 10503 10504 10507 10509 10511 10513 10515 10518 10521 10525 10529 10534 10538 10542 10547 10549 10552 10556 10560 10564 10568 10572 10578 10580 10581 10586 10591 10594 10598
10497 10497 10497 10497 10497 10497 10497 10496 10496 10495 10496 10496 10496 10496 10495 10495 10495 10494 10494 10494 10494 10493 10492 10492 10491 10491 10491 10490 10488 10487 10487 10487 10487 10487 10487 10487 10486 10484 10484 10483 10482 10482 10482 10482 10484 10485 10485 10486 10486 10485 10484 10484 10485 10486 10487 10489 10491 10492 10494 10496 10498 10500 10502 10505 10508 10511 10516 10520 10524 10529 10534 10537 10540 10544 10548 10551 10555 10559 10564 10567 10571 10576 10579 10584 10589
10492 10491 10491 10492 10492 10491 10491 10491 10491 10490 10490 10490 10490 10490 10490 10489 10489 10488 10488 10488 10487 10487 10487 10486 10485 10486 10486 10484 10481 10480 10480 10479 10479 10479 10478 10478 10476 10474 10473 10473 10472 10471 10471 10472 10473 10475 10475 10475 10475 10474 10473 10473 10474 10475 10476 10478 10480 10481 10482 10484 10486 10488 10490 10492 10495 10498 10503 10507 10511 10516 10520 10524 10528 10532 10535 10539 10542 10547 10551 10555 10560 10565 10568 10572 10578
10487 10486 10486 10486 10486 10486 10486 10486 10486 10486 10485 10485 10485 10484 10484 10483 10483 10482 10481 10481 10481 10481 10481 10480 10480 10480 10480 10477 10475 10474 10473 10472 10472 10472 10470 10469 10467 10465 10465 10464 10463 10462 10462 10463 10464 10465 10465 10465 10465 10465 10464 10464 10464 10465 10466 10468 10470 10471 10472 10473 10474 10476 10478 10481 10483 10486 10490 10494 10499 10503 10508 10512 10516 10520 10523 10527 10531 10535 10539 10543 10548 10553 10557 10561 10567
10482 10481 10481 10481 10481 10481 10481 10481 10481 10481 10480 10480 10480 10479 10479 10478 10477 10476 10475 10475 10475 10475 10476 10475 10474 10473 10472 10470 10468 10467 10466 10466 10466 10465 10463 10461 10458 10457 10456 10456 10455 10454 10454 10455 10456 10457 10457 10457 10457 10456 10456 10455 10455 10455 10457 10458 10460 10461 10462 10463 10464 10465 10467 10469 10471 10474 10477 10482 10486 10491 10495 10500 10504 10508 10511 10515 10519 10523 10527 10531 10536 10542 10546 10550 10555
10477 10476 10475 10476 10476 10476 10476 10476 10476 10476 10475 10475 10475 10474 10474 10473 10472 10471 10470 10470 10469 10469 10469 10469 10468 10466 10465 10463 10461 10460 10460 10461 10459 10457 10455 10453 10450 10449 10449 10448 10448 10447 10447 10447 10447 10448 10448 10449 10448 10447 10446 10446 10445 10446 10447 10448 10450 10451 10452 10452 10453 10455 10456 10458 10460 10462 10465 10469 10473 10478 10482 10487 10491 10495 10499 10503 10507 10511 10516 10520 10525 10530 10534 10539 10544
10472 10471 10470 10470 10471 10471 10471 10471 10471 10470 10470 10470 10470 10470 10469 10468 10467 10466 10466 10465 10464 10463 10462 10462 10461 10460 10458 10456 10453 10452 10454 10454 10451 10448 10447 10444 10442 10442 10442 10441 10441 10440 10439 10438 10438 10438 10438 10439 10439 10438 10436 10436 10436 10436 10438 10439 10441 10441 10442 10442 10443 10444 10445 10447 10449 10451 10454 10457 10461 10465 10470 10474 10478 10482 10486 10490 10495 10499 10504 10508 10513 10518 10523 10527 10532
10467 10466 10465 10465 10465 10466 10466 10466 10466 10466 10466 10466 10466 10465 10464 10463 10463 10462 10461 10460 10458 10457 10456 10456 10455 10453 10451 10449 10447 10446 10446 10446 10443 10440 10438 10436 10435 10435 10435 10434 10433 10431 10429 10428 10427 10427 10427 10427 10428 10427 10427 10426 10426 10427 10428 10430 10431 10431 10431 10431 10432 10433 10434 10436 10438 10440 10443 10445 10449 10453 10458 10462 10465 10469 10473 10478 10482 10487 10491 10496 10501 10506 10511 10515 10520
10462 10461 10460 10460 10460 10461 10461 10461 10461 10461 10461 10461 10461 10460 10459 10458 10458 10457 10456 10455 10453 10452 10451 10450 10449 10447 10444 10442 10441 10440 10438 10437 10435 10433 10431 10429 10429 10428 10427 10426 10424 10422 10420 10419 10418 10418 10417 10417 10417 10417 10417 10416 10416 10417 10418 10420 10420 10420 10420 10421 10422 10422 10423 10425 10428 10430 10432 10435 10438 10442 10445 10449 10453 10457 10461 10465 10469 10474 10478 10483 10489 10495 10499 10503 10508
10456 10456 10456 10455 10455 10456 10456 10456 10457 10457 10456 10456 10456 10455 10454 10453 10452 10451 10450 10449 10448 10447 10446 10444 10442 10440 10437 10436 10435 10433 10431 10429 10428 10426 10424 10422 10421 10420 10419 10418 10416 10414 10413 10412 10411 10410 10408 10408 10407 10407 10407 10407 10406 10407 10407 10409 10409 10410 10410 10411 10411 10412 10413 10416 10418 10420 10422 10424 10427 10431 10434 10438 10441 10445 10449 10453 10458 10461 10466 10471 10477 10482 10488 10492 10497
10451 10451 10451 10451 10451 10451 10451 10452 10452 10452 10452 10451 10451 10450 10449 10448 10448 10447 10446 10445 10444 10442 10441 10439 10437 10435 10432 10430 10429 10427 10424 10422 10421 10419 10417 10416 10415 10414 10412 10411 10409 10408 10406 10405 10404 10402 10401 10400 10399 10398 10397 10397 10396 10396 10397 10398 10398 10399 10400 10401 10401 10402 10404 10406 10408 10410 10412 10414 10417 10420 10423 10427 10430 10434 10439 10443 10447 10449 10453 10458 10464 10470 10476 10481 10487
10445 10445 10446 10446 10446 10446 10446 10447 10447 10447 10447 10446 10446 10445 10445 10444 10444 10443 10442 10441 10440 10438 10437 10435 10433 10431 10427 10425 10423 10421 10419 10417 10415 10414 10412 10411 10409 10408 10406 10405 10403 10402 10400 10399 10397 10395 10394 10393 10391 10390 10389 10388 10388 10387 10387 10387 10388 10389 10390 10391 10391 10392 10393 10395 10398 10400 10402 10405 10408 10411 10413 10416 10420 10425 10429 10433 10436 10438 10442 10446 10452 10459 10465 10470 10475
10440 10440 10440 10440 10440 10440 10441 10441 10442 10442 10442 10442 10441 10441 10440 10440 10439 10439 10438 10437 10436 10435 10433 10431 10429 10426 10423 10420 10418 10416 10414 10413 10411 10409 10407 10406 10404 10403 10401 10399 10398 10396 10394 10392 10390 10389 10387 10385 10384 10382 10381 10380 10380 10380 10379 10378 10378 10379 10380 10380 10380 10381 10382 10384 10387 10390 10392 10395 10398 10401 10404 10407 10411 10415 10419 10422 10425 10428 10432 10437 10442 10448 10454 10459 10465
10434 10434 10434 10434 10434 10435 10436 10436 10437 10437 10437 10437 10437 10436 10436 10436 10435 10435 10434 10433 10431 10430 10428 10426 10424 10422 10420 10417 10415 10413 10411 10409 10407 10405 10403 10402 10400 10398 10396 10394 10393 10391 10389 10386 10384 10382 10380 10379 10377 10375 10374 10373 10372 10372 10371 10370 10370 10370 10370 10371 10371 10371 10372 10374 10376 10379 10383 10386 10389 10393 10396 10399 10402 10406 10409 10412 10415 10419 10423 10428 10433 10438 10443 10449 10454
10428 10428 10428 10428 10429 10429 10430 10431 10432 10432 10432 10432 10432 10432 10432 10431 10431 10430 10430 10429 10427 10426 10424 10422 10420 10418 10416 10414 10412 10410 10408 10406 10404 10402 10400 10399 10397 10395 10393 10391 10389 10386 10384 10382 10379 10377 10375 10373 10371 10369 10367 10366 10365 10365 10364 10363 10362 10362 10362 10362 10362 10363 10363 10365 10367 10370 10374 10378 10381 10384 10388 10391 10394 10397 10400 10403 10407 10411 10415 10419 10423 10427 10433 10439 10444
10422 10422 10423 10423 10423 10424 10425 10426 10427 10427 10427 10428 10427 10427 10428 10427 10426 10426 10425 10424 10423 10422 10420 10418 10417 10415 10413 10412 10410 10408 10405 10403 10402 10400 10398 10396 10394 10392 10390 10387 10385 10383 10380 10378 10376 10373 10371 10369 10366 10364 10362 10361 10359 10358 10357 10356 10355 10355 10355 10355 10355 10356 10357 10358 10360 10362 10366 10370 10373 10376 10380 10383 10386 10389 10392 10396 10399 10403 10407 10410 10413 10418 10424 10429 10435
10417 10417 10417 10417 10418 10419 10420 10420 10421 10422 10423 10423 10423 10423 10423 10423 10422 10422 10421 10420 10420 10419 10417 10415 10413 10412 10410 10409 10407 10406 10404 10402 10400 10398 10396 10394 10392 10390 10387 10385 10382 10380 10378 10375 10373 10370 10367 10365 10362 10360 10358 10356 10354 10353 10352 10350 10349 10349 10349 10348 10349 10350 10351 10352 10353 10355 10358 10362 10366 10369 10372 10375 10378 10381 10385 10388 10392 10395 10398 10402 10405 10410 10415 10420 10426
10411 10412 10412 10412 10413 10414 10415 10415 10416 10417 10418 10418 10418 10418 10418 10419 10418 10418 10417 10417 10416 10415 10413 10412 10410 10409 10408 10407 10405 10404 10402 10400 10399 10397 10395 10393 10391 10388 10386 10383 10381 10379 10376 10374 10371 10368 10365 10362 10359 10357 10354 10352 10350 10349 10347 10346 10345 10344 10344 10344 10344 10344 10345 10346 10347 10348 10350 10354 10358 10362 10364 10367 10370 10373 10377 10381 10384 10387 10391 10394 10398 10402 10406 10411 10417
10405 10406 10407 10407 10408 10409 10410 10410 10411 10412 10413 10413 10413 10414 10414 10414 10415 10414 10414 10413 10412 10411 10410 10409 10407 10406 10405 10404 10403 10402 10400 10399 10397 10396 10394 10392 10390 10387 10385 10383 10380 10378 10375 10372 10370 10367 10364 10361 10358 10355 10352 10350 10348 10346 10344 10343 10341 10340 10340 10340 10339 10340 10341 10341 10342 10343 10345 10347 10351 10355 10357 10360 10362 10366 10370 10374 10377 10380 10383 10387 10391 10394 10398 10402 10408
10399 10400 10401 10402 10403 10404 10404 10405 10406 10407 10408 10408 10409 10409 10409 10410 10411 10410 10410 10410 10409 10408 10407 10406 10404 10403 10403 10402 10401 10400 10399 10397 10396 10395 10393 10391 10389 10387 10384 10382 10379 10377 10374 10372 10369 10366 10363 10360 10357 10354 10352 10349 10347 10345 10342 10341 10339 10338 10337 10336 10336 10336 10336 10337 10338 10339 10340 10342 10344 10348 10352 10354 10356 10359 10363 10367 10370 10373 10377 10380 10383 10387 10390 10394 10400
10392 10393 10395 10397 10397 10397 10398 10399 10400 10402 10403 10404 10404 10404 10404 10405 10406 10406 10406 10406 10406 10405 10404 10403 10402 10401 10400 10399 10398 10398 10397 10396 10395 10393 10392 10390 10388 10386 10384 10381 10379 10376 10374 10371 10368 10365 10362 10360 10357 10355 10352 10350 10347 10345 10342 10340 10338 10336 10335 10334 10333 10333 10333 10334 10334 10335 10336 10337 10339 10342 10346 10349 10351 10353 10357 10360 10364 10367 10370 10373 10376 10380 10384 10387 10392
10385 10386 10388 10390 10391 10391 10391 10392 10394 10396 10398 10399 10399 10399 10400 10401 10401 10402 10402 10402 10402 10401 10401 10400 10399 10398 10397 10396 10395 10395 10394 10394 10393 10392 10390 10389 10387 10385 10383 10381 10378 10376 10373 10371 10368 10366 10363 10361 10358 10356 10353 10350 10348 10345 10343 10340 10338 10336 10334 10333 10332 10331 10331 10331 10331 10332 10332 10333 10335 10337 10339 10342 10345 10347 10350 10353 10357 10360 10363 10366 10369 10373 10377 10381 10385
10377 10379 10380 10382 10384 10385 10385 10386 10387 10390 10392 10393 10393 10394 10395 10396 10396 10397 10398 10398 10398 10398 10397 10397 10396 10394 10393 10393 10392 10392 10391 10391 10391 10390 10388 10387 10385 10384 10382 10380 10378 10376 10374 10371 10369 10366 10364 10361 10359 10356 10353 10351 10349 10346 10344 10342 10339 10337 10335 10333 10331 10330 10329 10329 10329 10329 10329 10330 10331 10333 10335 10337 10339 10342 10344 10347 10350 10354 10357 10360 10363 10367 10371 10375 10378
10369 10372 10373 10375 10377 10379 10379 10379 10381 10384 10385 10387 10388 10390 10390 10390 10391 10393 10393 10394 10394 10394 10393 10393 10392 10391 10390 10390 10389 10389 10388 10388 10388 10387 10386 10385 10384 10382 10381 10379 10377 10375 10373 10371 10369 10367 10364 10362 10359 10357 10355 10353 10351 10348 10346 10343 10341 10339 10336 10334 10332 10331 10329 10328 10328 10327 10327 10328 10328 10329 10331 10333 10334 10337 10339 10341 10344 10347 10350 10354 10357 10361 10365 10369 10372
10361 10364 10365 10367 10369 10371 10372 10373 10375 10377 10379 10381 10383 10384 10385 10385 10387 10388 10389 10389 10390 10390 10389 10389 10389 10388 10387 10387 10386 10386 10385 10385 10385 10384 10384 10383 10382 10380 10379 10378 10376 10375 10373 10371 10369 10367 10365 10363 10361 10358 10356 10354 10352 10350 10348 10345 10343 10341 10338 10336 10334 10332 10330 10329 10328 10327 10326 10326 10327 10327 10328 10329 10331 10333 10334 10337 10339 10342 10345 10349 10352 10355 10359 10363 10366
10352 10355 10357 10359 10361 10363 10365 10367 10368 10370 10373 10376 10377 10378 10379 10381 10382 10383 10384 10385 10385 10385 10386 10386 10385 10385 10384 10384 10383 10383 10382 10382 10381 10381 10381 10381 10380 10379 10378 10376 10375 10374 10372 10371 10369 10368 10366 10364 10362 10360 10357 10355 10353 10351 10349 10347 10344 10342 10340 10338 10336 10333 10331 10330 10329 10328 10327 10326 10326 10326 10326 10327 10328 10330 10331 10333 10335 10338 10341 10344 10348 10351 10354 10357 10361
10342 10345 10348 10351 10353 10356 10358 10361 10362 10364 10367 10369 10371 10372 10374 10376 10377 10378 10379 10380 10381 10381 10382 10382 10382 10382 10381 10381 10380 10380 10380 10379 10379 10378 10378 10378 10377 10377 10376 10375 10374 10372 10371 10370 10369 10367 10366 10364 10362 10360 10358 10356 10354 10352 10350 10348 10346 10344 10342 10339 10337 10335 10333 10331 10330 10329 10328 10327 10327 10326 10326 10326 10327 10328 10329 10331 10333 10335 10338 10341 10344 10347 10350 10353 10356
10332 10337 10341 10344 10346 10348 10351 10354 10355 10358 10361 10363 10365 10367 10369 10370 10372 10373 10374 10375 10376 10377 10377 10378 10378 10378 10378 10378 10378 10377 10377 10377 10376 10376 10375 10375 10375 10374 10374 10373 10372 10371 10370 10369 10367 10366 10365 10363 10362 10360 10359 10357 10355 10353 10351 10349 10347 10345 10343 10341 10339 10337 10335 10333 10332 10330 10329 10328 10327 10327 10327 10327 10327 10328 10329 10330 10331 10333 10335 10337 10340 10343 10346 10349 10353
10324 10330 10335 10337 10338 10341 10344 10346 10349 10352 10354 10356 10358 10361 10363 10365 10367 10368 10369 10371 10372 10372 10373 10374 10374 10375 10375 10375 10375 10375 10374 10374 10374 10373 10373 10372 10372 10371 10371 10370 10370 10369 10368 10367 10366 10365 10364 10363 10361 10360 10359 10357 10356 10354 10353 10351 10349 10347 10345 10343 10341 10339 10337 10335 10334 10332 10331 10330 10329 10328 10328 10328 10328 10328 10328 10329 10331 10332 10334 10336 10338 10340 10343 10346 10349
10317 10323 10328 10329 10330 10333 10337 10340 10343 10346 10348 10350 10352 10355 10357 10359 10361 10363 10364 10366 10367 10367 10368 10369 10370 10370 10371 10371 10372 10372 10372 10371 10371 10371 10371 10370 10370 10369 10369 10368 10367 10367 10366 10365 10364 10363 10363 10362 10360 10359 10358 10357 10355 10354 10353 10351 10350 10348 10346 10345 10343 10341 10339 10338 10336 10335 10333 10332 10331 10330 10330 10329 10329 10329 10329 10330 10331 10332 10333 10334 10336 10338 10341 10344 10346
10309 10314 10319 10322 10323 10326 10329 10333 10337 10340 10341 10343 10346 10348 10350 10353 10355 10357 10359 10361 10362 10362 10363 10364 10365 10366 10366 10367 10368 10368 10368 10368 10368 10368 10368 10368 10368 10367 10367 10366 10365 10365 10364 10363 10362 10361 10361 10360 10359 10358 10357 10356 10355 10354 10352 10351 10350 10349 10347 10345 10344 10343 10341 10340 10338 10337 10336 10334 10333 10333 10332 10332 10332 10331 10331 10332 10332 10333 10333 10334 10336 10338 10340 10342 10344
10302 10306 10310 10313 10316 10319 10322 10325 10329 10333 10334 10336 10339 10342 10344 10346 10349 10351 10353 10355 10356 10357 10358 10359 10360 10361 10362 10362 10363 10364 10364 10365 10365 10365 10365 10364 10364 10364 10364 10364 10363 10363 10362 10361 10360 10360 10359 10358 10357 10356 10355 10354 10353 10352 10351 10350 10349 10348 10347 10346 10345 10343 10342 10341 10340 10339 10338 10337 10336 10335 10334 10334 10333 10333 10333 10333 10333 10334 10334 10335 10336 10338 10339 10341 10342